STARLINK-31157, 58735

Orbit data source: Space-Track

STARLINK-31157, 58735 is a payload satellite owned by SpaceX/Seattle (US) in LEO that was launched on Sun, 07 Jan 2024 UTC via an FALCON 9 launch vehicle from the Air Force Eastern Test Range (AFETR). Payload-class satellites include a variety of spacecraft equipped with specific instruments for various scientific and technological missions. These include communications satellites like Starlink; space stations such as the ISS; scientific satellites like the Hubble; Earth observation satellites from companies like Planet Labs, Umbra, and HawkEye 360; GPS; miniature CubeSats for education and research; and military/defense satellites.

Loading next visibility...
Identifier
58735, 2024-005H
Orbit
LEO
Country
Flag of USUS
Related business
Manufacturer
SpaceX/Seattle
Mission
Operational Commercial Communications
Bus & Motor
STARLINK V2M, Unknown motor
Mass
730 kg wet, ~700 kg dry
Launch date (UTC)
2024-01-07 (2 years ago)
Launch vehicle
FALCON 9
Launch site
Air Force Eastern Test Range (AFETR)
Object type
Payload
Rocket body
Debris
Shape & HBR
Box + 2 Pan, 17.7 m
Radar Cross Section
33.884 m², Large (>1 m²)

Expand to show TLE details & history
Last TLE update: 3 days ago

TLE from 3 days ago
0 STARLINK-31157
1 58735U 24005H   26170.60806376  .00001097  00000-0  49382-4 0  9998
2 58735  43.0054   3.9269 0002081 279.8283  80.2334 15.27580234136035
Epoch: 2026-06-19T14:35Z
TLE epoch observation values (Epoch: 2026-06-19T14:35:36.708Z)
Latitude
-0.00002°
Longitude
-122.81067°
Altitude
482.583 km
Speed
7.626 km/s
True Right ascension
00h 15m 42s
True Declination
0° 00' 00"
Sunlit
Object was in daylight at epoch
Visualization orbit readout
Latitude
Unknown
Longitude
Unknown
Altitude
Unknown
Speed
Unknown
Apparent Right ascension
Unknown
Apparent Declination
Unknown
Sunlit
N/A
Visualization observer readout
Local Sidereal Time
21:24:19
Azimuth
Unknown
Elevation
Unknown
Doppler factor
Unknown
Orbital elements
Apogee altitude
486.421 km
Perigee altitude
483.564 km
Semi-major axis
6,863.13 km
Eccentricity
0.00021
Inclination
43.0054°
RAAN
3.9269°
Arg. of periapsis
279.8283°
True anomaly
80.2569°
Mean anomaly
80.2334°
Eccentric anomaly
80.24515°
Mean motion
3.81733 °/min
Orbital period
94.31 mins
BSTAR
0.000049382
Loading maneuver chart data...
Computing Atmospheric mass density...
Loading historical data...
Loading historical data...
Loading historical data...
Loading historical data...
Loading historical data...
Loading historical data...
Loading historical data...

Documentation

Showing up to 5 results
|